Location: Zagreb
(45.8000°N, 16.0000°E)
Time: 18:10:11
(UTC+02:00)

A-11 Canister half - Pass Details

Date: 09 August 2022
Orbit: 1524 x 1684 km, 47.3° (Epoch: 05 October)

Event Time Altitude Azimuth Distance (km) Brightness Sun altitude
Rises 09:21:58 0° 264° (W) 4,935 11.2 35.5°
Reaches altitude 10° 09:25:09 10° 265° (W) 3,948 10.8 36.1°
Maximum altitude 09:35:23 83° 354° (N) 1,686 9.9 37.8°
Drops below altitude 10° 09:45:26 10° 84° (E) 3,883 12.1 39.4°
Sets 09:48:32 0° 85° (E) 4,850 12.4 39.9°
